Location: Peterborough
(44.3091°N, 78.3197°W)
Time: 18:41:45
(UTC-05:00)

Tiros 1 - Pass Details

Date: 28 September 2023
Orbit: 626 x 659 km, 48.4° (Epoch: 04 December)

Event Time Altitude Azimuth Distance (km) Brightness Sun altitude
Rises 05:46:16 0° 189° (S) 2,914 10.3 -15.2°
Reaches altitude 10° 05:49:32 10° 165° (SSE) 2,019 9.7 -14.6°
Maximum altitude 05:52:01 14° 133° (SE) 1,754 9.8 -14.2°
Drops below altitude 10° 05:54:31 10° 100° (E) 2,038 10.9 -13.8°
Sets 05:57:50 0° 77° (ENE) 2,961 12.6 -13.2°
